Regional Weather Roundup
Issued by NWS

Home | Current Version | Previous Version | Text Only | Print | Product List | Glossary On
Versions: 1 2 3 4 5 6 7 8 9 10 11 12 13 14 15 16 17 18 19 20 21 22 23 24 25 26 27 28 29 30 31 32 33 34 35 36 37 38 39 40 41 42 43 44 45 46 47 48 49 50
000
ASUS43 KLOT 032021
RWRIL

ILLINOIS REGIONAL WEATHER ROUNDUP
NATIONAL WEATHER SERVICE CHICAGO/ROMEOVILLE IL
300 PM CDT SUN MAY 03 2015

NOTE: "FAIR" INDICATES FEW OR NO CLOUDS BELOW 12,000 FEET WITH NO
SIGNIFICANT WEATHER AND/OR OBSTRUCTIONS TO VISIBILITY.

* THESE STATIONS ARE NOT UNDER NWS QUALITY CONTROL. THEY ALSO MAY NOT
  REPORT WEATHER SUCH AS PRECIPITATION OR FOG.

ILZ001-002-007-009-015-016-024-032100-
NORTHWEST ILLINOIS

CITY           SKY/WX    TMP DP  RH WIND       PRES   REMARKS
MOLINE         PTSUNNY   79  58  48 W10G20    29.86F HX  80
STERLING*      CLOUDY    63  57  82 SE5       29.90R THUNDER
SAVANNA*       CLOUDY    61  58  91 NE7       29.91R
$$

ILZ003-004-008-010-011-017-018-032100-
NORTH CENTRAL ILLINOIS

CITY           SKY/WX    TMP DP  RH WIND       PRES   REMARKS
ROCKFORD       LGT RAIN  65  57  75 NE5       29.94F
FREEPORT*      RAIN      60  57  87 W10G16    29.97R
ROCHELLE*      LGT RAIN  73  57  59 SE8       29.91F
DE KALB*       CLOUDY    71  56  59 SE3       29.92F
PERU*          PTSUNNY   80  48  32 S18G24    29.90F
$$

ILZ005-006-012>014-019>023-032100-
NORTHEAST ILLINOIS

CITY           SKY/WX    TMP DP  RH WIND       PRES   REMARKS
CHICAGO-OHARE  CLOUDY    73  50  44 S5        29.92F
CHICAGO-MIDWAY CLOUDY    79  45  29 S9        29.92F
AURORA         CLOUDY    79  50  36 SE10      29.91F
LANSING*       PTSUNNY   76  43  30 S10       29.94F
JOLIET*        CLOUDY    81  50  34 SW10G16   29.91F HX  80
WAUKEGAN       CLOUDY    74  50  42 S18G25    29.92S
DUPAGE AIRPORT CLOUDY    75  52  44 SE7       29.91F
KANKAKEE*      PTSUNNY   81  49  32 S17G26    29.94F HX  80
WHEELING       CLOUDY    74  48  39 S13       29.94F
MORRIS*        CLOUDY    81  47  30 SW17G24   29.90F HX  80
ROMEOVILLE*    CLOUDY    81  43  26 SW13      29.91F
NORTHERLY ISL    N/A     77  41  27 SW9         N/A
$$

LMZ740>746-032100-
SOUTHERN LAKE MICHIGAN

STATION/POSITION SKY/WX   TEMP    WIND        PRES    VSBY  WAVE
                          AIR SEA DIR/SP/G                  HT/PER
                          (F)     (DEG/KT/KT) (MB)    (MI)  (FT/S)
HARRISON CRIB              74     190/ 15/ 18   N/A
BURNHAM HARBOR             77     190/  6/ 17   N/A
CALUMET HARBOR             78     220/  9/ 18   N/A
BURNS HARBOR               76     200/ 19/ 24 1014.9F
MICHIGAN CITY              77     200/ 12/ 19   N/A
MICHIGAN CITY 6N           65 51  230/  8/ 10   N/A           1/ 3
ST. JOSEPH                 60 50  210/  2/  4   N/A           1
$$

ILZ025>027-034>036-040-047-049-050-058-095>099-032100-
WEST-CENTRAL ILLINOIS

CITY           SKY/WX    TMP DP  RH WIND       PRES   REMARKS
QUINCY         MOSUNNY   81  54  39 SW21      29.90F HX  81
GALESBURG*     PTSUNNY   81  55  41 S22G29    29.88F HX  80
MACOMB*        MOSUNNY   85  51  31 SW21      29.91F HX  83
JACKSONVILLE*  MOSUNNY   86  51  30 S16G22    29.93F HX  84
PITTSFIELD*    MOSUNNY   83  53  34 S12G22    29.93F HX  82
$$

ILZ028>032-037-038-041>044-048-051>054-059>061-032100-
CENTRAL ILLINOIS

CITY           SKY/WX    TMP DP  RH WIND       PRES   REMARKS
PONTIAC        CLOUDY    81  49  32 S17G23    29.93F HX  80
BLOOMINGTON    PTSUNNY   83  51  32 S18G26    29.94F HX  81
DECATUR        MOSUNNY   81  48  31 S17G25    29.97F HX  80
PEORIA         PTSUNNY   82  51  34 S14G26    29.91S HX  81
LACON*         PTSUNNY   80  49  33 SW20G26   29.89F
LINCOLN*       PTSUNNY   84  47  26 SW14G22   29.90F HX  82
SPRINGFIELD    MOSUNNY   84  50  30 S18G29    29.94F HX  82
TAYLORVILLE    MOSUNNY   81  48  32 S14G22    29.96F HX  80
$$

ILZ033-039-045-046-055>057-062-063-032100-
EAST-CENTRAL ILLINOIS

CITY           SKY/WX    TMP DP  RH WIND       PRES   REMARKS
CHAMPAIGN      PTSUNNY   84  40  21 S21G30    29.98F HX  81
DANVILLE*      SUNNY     81  45  28 SW15G24   29.97F
RANTOUL*       PTSUNNY   83  42  23 S20G28    29.97F HX  80
MATTOON        MOSUNNY   77  42  28 SW15G28   30.00F
PARIS*         SUNNY     80  44  27 S13G28    30.02S
$$

ILZ079-100>102-032100-
SOUTHWEST ILLINOIS

CITY           SKY/WX    TMP DP  RH WIND       PRES   REMARKS
ALTON          SUNNY     81  39  22 S14G23    29.96F
BELLEVILLE     SUNNY     82  52  35 S12G20    29.97F HX  81
CAHOKIA*       SUNNY     84  49  29 S14G21    29.96F HX  82
SPARTA*        SUNNY     77  50  38 SE17      30.02F
$$

ILZ064>066-069>071-074>076-080>082-084>086-088>090-092>094-032100-
SOUTH-CENTRAL ILLINOIS

CITY           SKY/WX    TMP DP  RH WIND       PRES   REMARKS
CARBONDALE     SUNNY     79  47  32 SW13G23   30.02F
CAIRO*         MOSUNNY   80  46  30 S13       30.05F
EFFINGHAM*     SUNNY     80  38  22 S16       30.02F
MARION         MOSUNNY   81  48  32 S14G20    30.04  HX  80
MT. VERNON     SUNNY     81  48  32 S12       30.03F HX  80
CENTRALIA*     SUNNY     81  44  26 S18G24    30.01F HX  80
SALEM*         SUNNY     82  41  23 S18       30.01F HX  80
METROPOLIS*    SUNNY     80  48  33 S10       30.05F
$$

ILZ067-068-072-073-078-083-087-091-032100-
SOUTHEAST ILLINOIS

CITY           SKY/WX    TMP DP  RH WIND       PRES   REMARKS
LAWRENCEVILLE  SUNNY     80  46  30 SW18G24   30.04F
FLORA*         SUNNY     80  44  28 S15G24    30.03S
FAIRFIELD*     SUNNY     80  44  27 SW14G20   30.02F
HARRISBURG*    SUNNY     79  44  28 S15       30.05F
ROBINSON*      SUNNY     81  42  25 S10G24    30.03F
CARMI*         SUNNY     80  37  21 S14G20    30.03F
$$

ABBREVIATIONS USED IN REMARKS
   TC - TEMPERATURE IN CELSIUS
  WCI - WIND CHILL INDEX
   HX - HEAT INDEX
  VSB - VISIBILITY
$$



USA.gov is the U.S. government's official web portal to all federal, state and local government web resources and services.